Location: Góry Miechowskie
(50.3599°N, 20.1803°E)
Time: 16:05:02
(UTC+00:00)

Cosmos 1437 Rocket - Visible Passes

Search period start: 08 September 2024 00:00
Search period end: 18 September 2024 00:00
Orbit: 475 x 525 km, 81.2° (Epoch: 07 September)

Date Brightness Start Highest point End Pass type
(mag) Time Alt. Az. Time Alt. Az. Time Alt. Az.
08 Sep 5.8 22:48:56 10° N 22:49:27 13° N 22:49:27 13° N visible
09 Sep 5.9 22:29:08 10° N 22:29:29 12° N 22:29:29 12° N visible
10 Sep 6.0 22:09:21 10° NNE 22:09:29 11° NNE 22:09:29 11° NNE visible
